Weather History for Madera, CA

Change the Weather History Date:

Friday, December 28, 2012

  Actual Average Record
Temperature  
Mean Temperature 41 °F 44 °F  
Max Temperature 50 °F 52 °F 65 °F (1999)
Min Temperature 31 °F 36 °F 27 °F (2000)
Degree Days  
Heating Degree Days 24    
Month to date heating degree days 460  
Since 1 July heating degree days 828  
Cooling Degree Days 0    
Month to date cooling degree days 0  
Year to date cooling degree days 1737  
Moisture  
Dew Point 36 °F    
Average Humidity 83    
Maximum Humidity 100    
Minimum Humidity 66    
Precipitation  
Precipitation 0.00 in 0.08 in 0.83 in (2010)
Month to date precipitation 2.52 1.50  
Year to date precipitation 10.92 11.82  
Since 1 July precipitation 4.70 3.82  
Snow  
Snow 0.00 in - - ()
Month to date snowfall 0.0  
Since 1 July snowfall 0.0  
Snow Depth 0.00 in    
Sea Level Pressure  
Sea Level Pressure 30.17 in    
Wind  
Wind Speed 3 mph (ESE)    
Max Wind Speed 9 mph    
Max Gust Speed 14 mph    
Visibility 5 miles    
Events Fog    
T = Trace of Precipitation, MM = Missing Value Source: NWS Daily Summary

Daily Weather History Graph

Daily Weather History Graph

Search for Another Location

Airport:

Trip Planner

Search our weather history database for the weather conditions in past years. The results will help you decide how hot, cold, wet, or windy it might be!

Date:

Astronomy

Dec. 28, 2012 Rise Set
Actual Time 7:12 AM PST 4:51 PM PST
Civil Twilight 6:43 AM PST 5:20 PM PST
Nautical Twilight 6:11 AM PST 5:53 PM PST
Astronomical Twilight 5:39 AM PST 6:24 PM PST
Moon 5:31 PM PST (12/28) 7:11 AM PST (12/28)
Length of Visible Light 10h 36m
Length of Day
9h 38m
Full, 100% of the Moon is Illuminated
Dec 28
Full
Jan 4
Last Quarter
Jan 11
New
Jan 18
First Quarter
Jan 26
Full

Hourly Weather History & Observations

Time (PST) Temp. Windchill Dew Point Humidity Pressure Visibility Wind Dir Wind Speed Gust Speed Precip Events Conditions
12:06 AM 35.6 °F - 33.8 °F 93% 30.20 in 1.2 mi Calm Calm - N/A   Clear
12:48 AM 35.6 °F - 33.8 °F 93% 30.20 in 0.8 mi Calm Calm - N/A   Clear
12:53 AM 35.1 °F - 34.0 °F 96% 30.21 in 0.8 mi Calm Calm - N/A   Clear
12:56 AM 35.6 °F 32.8 °F 33.8 °F 93% 30.20 in 1.0 mi ESE 3.5 mph - N/A   Mist
1:19 AM 35.6 °F 31.7 °F 33.8 °F 93% 30.21 in 0.8 mi East 4.6 mph - N/A   Mist
1:24 AM 35.6 °F 31.7 °F 33.8 °F 93% 30.21 in 1.2 mi East 4.6 mph - N/A   Scattered Clouds
1:48 AM 33.8 °F 29.6 °F 33.8 °F 100% 30.21 in 2.0 mi East 4.6 mph - N/A   Clear
1:53 AM 34.0 °F 29.8 °F 33.1 °F 96% 30.22 in 2.0 mi East 4.6 mph - N/A   Clear
2:02 AM 33.8 °F 28.6 °F 33.8 °F 100% 30.21 in 1.8 mi East 5.8 mph - N/A   Clear
2:20 AM 33.8 °F 28.6 °F 33.8 °F 100% 30.21 in 0.5 mi ENE 5.8 mph - N/A Fog Fog
2:53 AM 33.1 °F - 33.1 °F 100% 30.22 in 0.2 mi Calm Calm - N/A Fog Fog
3:53 AM 33.1 °F - 32.0 °F 96% 30.21 in 0.5 mi Calm Calm - N/A Fog Fog
4:02 AM 32.0 °F - 32.0 °F 100% 30.20 in 1.2 mi Calm Calm - N/A   Partly Cloudy
4:12 AM 32.0 °F - 32.0 °F 100% 30.20 in 0.8 mi Calm Calm - N/A   Mist
4:22 AM 33.8 °F - 32.0 °F 93% 30.20 in 1.2 mi Calm Calm - N/A   Partly Cloudy
4:26 AM 33.8 °F 30.8 °F 32.0 °F 93% 30.20 in 3.0 mi East 3.5 mph - N/A   Partly Cloudy
4:53 AM 34.0 °F 31.0 °F 33.1 °F 96% 30.20 in 6.0 mi East 3.5 mph - N/A   Clear
5:53 AM 33.1 °F - 32.0 °F 96% 30.20 in 6.0 mi Calm Calm - N/A   Clear
6:53 AM 32.0 °F - 30.0 °F 92% 30.20 in 8.0 mi Calm Calm - N/A   Clear
7:53 AM 33.1 °F - 30.9 °F 92% 30.20 in 10.0 mi Calm Calm - N/A   Clear
8:53 AM 39.9 °F - 36.0 °F 86% 30.22 in 10.0 mi North - - N/A   Clear
9:53 AM 43.0 °F - 37.0 °F 80% 30.23 in 10.0 mi North - - N/A   Clear
10:53 AM 46.9 °F - 39.0 °F 74% 30.22 in 10.0 mi North - - N/A   Clear
11:53 AM 48.0 °F - 41.0 °F 77% 30.18 in 8.0 mi South 6.9 mph - N/A   Clear
12:53 PM 48.9 °F - 39.9 °F 71% 30.15 in 10.0 mi Variable 5.8 mph - N/A   Clear
1:53 PM 50.0 °F - 39.0 °F 66% 30.12 in 10.0 mi ESE 8.1 mph - N/A   Clear
2:53 PM 48.9 °F - 39.9 °F 71% 30.13 in 10.0 mi South 4.6 mph - N/A   Scattered Clouds
3:53 PM 48.0 °F - 39.0 °F 71% 30.12 in 10.0 mi South 4.6 mph - N/A   Mostly Cloudy
4:53 PM 46.9 °F - 39.9 °F 77% 30.10 in 10.0 mi South 3.5 mph - N/A   Overcast
5:53 PM 46.0 °F - 39.9 °F 79% 30.11 in 9.0 mi Calm Calm - N/A   Overcast
6:53 PM 46.0 °F - 41.0 °F 83% 30.10 in 9.0 mi Calm Calm - N/A   Overcast
7:53 PM 44.1 °F 41.5 °F 39.9 °F 85% 30.08 in 5.0 mi East 4.6 mph - N/A   Mostly Cloudy
8:53 PM 44.1 °F 42.5 °F 39.9 °F 85% 30.09 in 5.0 mi East 3.5 mph - N/A   Overcast
9:53 PM 45.0 °F 42.6 °F 41.0 °F 86% 30.08 in 5.0 mi East 4.6 mph - N/A   Overcast
10:53 PM 44.1 °F 41.5 °F 41.0 °F 89% 30.07 in 6.0 mi East 4.6 mph - N/A   Overcast
11:53 PM 45.0 °F 41.8 °F 41.0 °F 86% 30.06 in 5.0 mi SE 5.8 mph - N/A   Overcast